#timestamp,LO_Frequency,Hit,StdDev 
1618920015.2,286046999.7,N
1618920035.0,286047000.1,N
1618920035.9,286047000.1,N
1618920055.8,286046999.9,N
1618920075.6,286047002.3,N
1618920095.4,286047000.1,N
1618920115.3,286046999.8,N
1618920135.1,286046999.8,N
1618920155.9,286046999.7,N
1618920175.7,286047000.1,N
1618920195.5,286047002.8,N
1618920215.4,286047002.6,N
1618920235.2,286047002.4,N
1618920255.0,286046999.8,N
1618920255.9,286046999.8,N
1618920275.8,286047002.2,N
1618920295.6,286047002.2,N
1618920315.5,286047002.0,N
1618920335.3,286047002.7,N
1618920355.1,286047002.0,N
1618920375.9,286047002.6,N
1618920395.7,286047002.4,N
1618920415.5,286047001.6,N
1618920435.4,286047002.0,N
1618920455.2,286047002.8,N
1618920475.1,286047002.2,N
1618920476.0,286047002.2,N
1618920495.8,286047002.8,N
1618920515.6,286047002.7,N
1618920535.5,286047001.5,N
1618920555.3,286047002.5,N
1618920575.2,286047001.9,N
1618920595.9,286047002.1,N
1618920615.7,286047001.7,N
1618920635.6,286047001.7,N
1618920655.4,286047004.2,Y
1618920675.2,286047002.6,P
1618920695.1,286047002.4,P
1618920696.0,286047002.4,P
1618920715.8,286046999.8,N
1618920735.7,286047002.3,N
1618920755.5,286047002.4,N
1618920775.3,286047002.4,N
1618920795.2,286047002.0,N
1618920815.0,286047002.3,N
1618920815.9,286047002.3,N
1618920835.8,286047002.4,Y
1618920855.6,286046998.5,P
1618920875.4,286046998.1,N
1618920895.3,286047001.1,N
1618920915.1,286046998.2,N
1618920935.8,286047000.9,N
1618920955.7,286047001.2,N
1618920975.5,286047001.1,N
1618920995.4,286047000.7,N
1618921015.2,286047000.6,N
1618921065.0,286047000.9,E
1618921075.9,286047000.8,N
1618921095.7,286046998.2,P
1618921115.5,286046998.5,N
1618921135.4,286047000.6,N
1618921155.2,286046998.1,N
1618921175.1,286047000.7,N
1618921176.0,286047000.7,N
1618921195.8,286046998.1,N
1618921215.6,286046998.1,N
1618921235.5,286047001.0,N
1618921255.3,286047000.9,N
1618921275.1,286047000.4,N
1618921295.9,286047000.6,N
1618921315.7,286047000.6,N
1618921335.6,286047000.5,N
1618921355.4,286047001.1,N
1618921375.2,286047000.5,N
1618921395.1,286047000.6,N
1618921396.0,286047000.6,N
1618921415.8,286047000.4,N
1618921435.7,286047000.0,N
1618921455.5,286047001.0,N
1618921475.3,286047000.2,N
1618921495.2,286047000.3,N
1618921515.9,286047000.0,N
1618921535.7,286047002.7,N
1618921555.6,286047000.0,N
1618921575.4,286046999.7,N
1618921595.3,286047002.8,N
1618921615.1,286047000.0,N
1618921616.0,286047000.0,N
1618921635.8,286046999.8,N
1618921655.7,286046999.9,N
1618921675.5,286047000.9,N
1618921695.4,286047000.2,N
1618921715.2,286047000.0,N
1618921735.0,286046999.9,N
1618921735.9,286046999.9,N
1618921755.8,286047000.3,N
1618921775.6,286047001.0,N
1618921795.4,286047000.3,N
1618921815.3,286047002.4,Y
1618921835.1,286047000.3,P
1618921855.9,286047002.7,P
1618921875.7,286047000.6,N
1618921895.5,286047000.2,N
1618921915.4,286047002.6,N
1618921935.2,286047002.0,N
1618921955.1,286047002.0,N
1618921956.0,286047002.0,N
1618921975.8,286047002.2,N
1618921995.6,286047002.5,N
1618922015.5,286046999.8,N
1618922035.3,286047002.4,N
1618922055.1,286047000.1,N
1618922075.9,286047002.1,N
1618922095.7,286047002.3,N
1618922115.6,286046999.8,N
1618922135.4,286047002.6,N
1618922155.2,286047002.6,N
1618922175.1,286047002.4,N
1618922176.0,286047002.4,N
1618922195.8,286047002.5,N
1618922215.7,286047002.6,N
1618922235.5,286047001.5,N
1618922255.3,286047002.0,N
1618922275.2,286047002.0,N
1618922295.9,286047001.6,N
1618922315.7,286047002.0,N
1618922335.6,286047002.0,N
1618922355.4,286047002.6,N
1618922375.3,286047002.5,N
1618922395.1,286047001.9,N
1618922396.0,286047001.9,N
1618922415.8,286047001.9,N
1618922435.7,286047001.5,N
1618922455.5,286047001.5,N
1618922475.3,286047001.9,N
1618922495.2,286047001.8,N
1618922515.0,286047004.1,Y
1618922515.9,286047004.1,P
1618922535.8,286047002.5,N
1618922555.6,286047002.1,N
1618922575.4,286047002.3,N
1618922595.3,286047002.5,Y
1618922615.1,286047000.6,P
1618922635.9,286047000.5,N
1618922655.7,286047000.8,N
1618922675.5,286047001.1,N
1618922695.4,286047001.2,N
1618922715.2,286047001.2,N
1618922735.1,286047001.2,N
1618922736.0,286047001.2,N
1618922755.8,286046998.2,Y
1618922775.6,286046999.1,P
1618922795.5,286046999.0,N
1618922815.3,286046996.9,P
1618922835.2,286046999.5,N
1618922855.9,286046999.4,N
1618922875.7,286046998.9,N
1618922895.6,286046998.3,N
1618922915.4,286046999.3,N
1618922935.2,286046998.8,N
1618922955.1,286046998.3,N
1618922956.0,286046998.3,N
1618922975.8,286046998.5,N
1618922995.7,286046998.5,N
1618923015.5,286046998.3,N
1618923035.3,286047001.1,N
1618923055.2,286046998.3,N
1618923075.0,286046998.5,N
1618923075.9,286046998.5,N
1618923095.7,286046998.4,N
1618923115.6,286046998.6,N
1618923135.4,286046998.6,N
1618923155.3,286046998.3,N
1618923175.1,286046998.6,N
1618923176.0,286046998.6,N
1618923195.8,286046998.2,N
1618923215.7,286046998.3,N
1618923235.5,286046998.7,N
1618923255.3,286046998.7,N
1618923275.2,286046998.5,N
1618923295.0,286046998.6,N
1618923295.9,286046998.6,N
1618923315.8,286046998.6,N
1618923335.6,286046998.4,N
1618923355.4,286046998.8,N
1618923375.3,286047001.2,N
1618923395.1,286046998.4,N
1618923415.8,286046998.6,N
1618923435.7,286046998.3,N
1618923455.5,286047001.0,N
1618923475.4,286046998.6,N
1618923495.2,286046998.6,N
1618923515.0,286046998.7,N
1618923515.9,286046998.7,N
1618923535.8,286046998.4,N
1618923555.6,286046998.3,N
1618923575.4,286046998.2,N
1618923595.3,286046998.3,N
